QPF
0.04 0.02 0.02 0.02 0.02 0.03 0.02 0.02 0.02 0.02 0.02 0.03 0.03 0.03 0.03 0.03 0.04 0.04 0.03 0.03 0.02 0.01 0.01 0.01 0.01 0.01 0.02 0.01 0.01 0.02 0.02 0.02 0.02 0.02 0.02 0.02 0.03 0.02
0.04 0.03 0.02 0.02 0.02 0.03 0.03 0.02 0.02 0.02 0.02 0.02 0.02 0.03 0.03 0.03 0.03 0.02 0.03 0.03 0.03 0.02 0.01 0.01 0.01 0.01 0.01 0.02 0.02 0.02 0.02 0.02 0.02 0.02 0.02 0.02 0.02 0.02
0.05 0.05 0.04 0.03 0.03 0.03 0.03 0.03 0.03 0.02 0.02 0.01 0.01 0.01 0.02 0.02 0.03 0.02 0.01 0.02 0.02 0.01 0.01 0.01 0.01 0.01 0.01 0.01 0.02 0.02 0.02 0.03 0.02 0.02 0.02 0.02 0.02 0.01
0.06 0.05 0.06 0.06 0.05 0.05 0.04 0.04 0.04 0.03 0.02 0.01 0.01 0.01 0.02 0.03 0.03 0.02 0.02 0.01 0.00 0.01 0.01 0.01 0.01 0.01 0.01 0.01 0.01 0.02 0.03 0.03 0.03 0.02 0.01 0.01 0.01 0.01
0.05 0.04 0.04 0.04 0.05 0.06 0.06 0.06 0.05 0.04 0.03 0.02 0.01 0.01 0.01 0.02 0.03 0.04 0.03 0.01 0.01 0.01 0.01 0.02 0.02 0.02 0.02 0.02 0.02 0.02 0.02 0.02 0.03 0.03 0.03 0.02 0.01 0.01
0.04 0.04 0.04 0.03 0.03 0.03 0.05 0.06 0.06 0.06 0.05 0.04 0.03 0.02 0.02 0.02 0.02 0.04 0.05 0.03 0.01 0.01 0.02 0.02 0.02 0.02 0.02 0.02 0.02 0.02 0.02 0.02 0.02 0.03 0.04 0.04 0.03 0.03
0.02 0.02 0.03 0.03 0.03 0.03 0.03 0.04 0.05 0.06 0.07 0.07 0.05 0.03 0.03 0.03 0.03 0.02 0.04 0.04 0.02 0.01 0.01 0.01 0.01 0.02 0.02 0.02 0.02 0.02 0.02 0.03 0.03 0.03 0.03 0.04 0.05 0.05
0.02 0.01 0.01 0.02 0.03 0.03 0.03 0.03 0.04 0.04 0.04 0.05 0.05 0.04 0.03 0.03 0.04 0.03 0.03 0.04 0.03 0.02 0.01 0.01 0.01 0.02 0.02 0.02 0.02 0.02 0.02 0.03 0.03 0.03 0.03 0.03 0.04 0.04
0.02 0.02 0.02 0.02 0.03 0.03 0.03 0.04 0.04 0.04 0.04 0.03 0.03 0.03 0.03 0.03 0.04 0.04 0.03 0.03 0.03 0.02 0.01 0.02 0.02 0.02 0.02 0.02 0.02 0.02 0.02 0.02 0.02 0.03 0.03 0.03 0.04 0.04
0.02 0.02 0.02 0.02 0.02 0.04 0.04 0.04 0.03 0.03 0.03 0.02 0.02 0.02 0.02 0.02 0.03 0.03 0.04 0.03 0.03 0.02 0.02 0.02 0.02 0.02 0.02 0.01 0.01 0.01 0.01 0.02 0.02 0.02 0.03 0.03 0.03 0.03
0.02 0.02 0.02 0.02 0.03 0.04 0.04 0.05 0.04 0.04 0.04 0.03 0.03 0.03 0.03 0.03 0.03 0.03 0.04 0.04 0.04 0.03 0.02 0.02 0.02 0.02 0.02 0.01 0.01 0.01 0.01 0.01 0.01 0.01 0.02 0.02 0.02 0.02
0.01 0.02 0.03 0.02 0.03 0.03 0.03 0.04 0.04 0.04 0.04 0.03 0.03 0.03 0.02 0.03 0.03 0.02 0.03 0.04 0.04 0.04 0.02 0.02 0.02 0.02 0.02 0.01 0.01 0.01 0.01 0.01 0.01 0.01 0.01 0.01 0.02 0.02
0.01 0.02 0.02 0.02 0.02 0.02 0.03 0.04 0.05 0.04 0.04 0.04 0.04 0.04 0.03 0.03 0.03 0.03 0.02 0.03 0.04 0.03 0.02 0.02 0.02 0.02 0.02 0.02 0.01 0.01 0.01 0.01 0.00 0.00 0.01 0.01 0.01 0.02
0.01 0.02 0.02 0.02 0.02 0.02 0.03 0.04 0.06 0.05 0.04 0.04 0.04 0.04 0.03 0.02 0.02 0.02 0.02 0.02 0.02 0.02 0.01 0.01 0.02 0.02 0.02 0.02 0.01 0.01 0.01 0.00 0.00 0.00 0.00 0.00 0.01 0.01
0.02 0.02 0.02 0.02 0.02 0.01 0.02 0.02 0.04 0.05 0.05 0.05 0.04 0.03 0.02 0.02 0.02 0.02 0.02 0.02 0.02 0.02 0.02 0.01 0.02 0.02 0.02 0.02 0.01 0.01 0.01 0.01 0.01 0.01 0.00 0.00 0.00 0.01
0.01 0.01 0.01 0.01 0.01 0.01 0.01 0.01 0.02 0.04 0.05 0.05 0.05 0.04 0.03 0.02 0.03 0.02 0.02 0.03 0.03 0.02 0.02 0.02 0.02 0.02 0.02 0.02 0.01 0.01 0.01 0.01 0.00 0.01 0.01 0.01 0.00 0.00
0.01 0.01 0.01 0.01 0.01 0.01 0.01 0.01 0.01 0.02 0.03 0.05 0.06 0.06 0.04 0.03 0.03 0.02 0.02 0.02 0.02 0.02 0.02 0.02 0.01 0.01 0.01 0.02 0.02 0.01 0.01 0.01 0.00 0.00 0.01 0.01 0.00 0.00
0.01 0.00 0.01 0.01 0.01 0.01 0.01 0.01 0.01 0.01 0.02 0.03 0.05 0.06 0.06 0.04 0.03 0.02 0.02 0.02 0.02 0.02 0.01 0.01 0.02 0.02 0.02 0.01 0.01 0.01 0.01 0.01 0.01 0.00 0.01 0.01 0.01 0.00
0.01 0.01 0.00 0.01 0.01 0.01 0.01 0.01 0.01 0.01 0.01 0.02 0.03 0.05 0.05 0.05 0.04 0.03 0.02 0.02 0.02 0.01 0.01 0.02 0.02 0.03 0.02 0.01 0.01 0.00 0.01 0.01 0.01 0.01 0.01 0.01 0.01 0.00
0.00 0.00 0.00 0.00 0.00 0.00 0.01 0.01 0.01 0.01 0.01 0.02 0.03 0.03 0.04 0.04 0.04 0.04 0.03 0.02 0.02 0.02 0.02 0.01 0.02 0.02 0.03 0.02 0.02 0.01 0.00 0.01 0.01 0.01 0.01 0.01 0.00 0.00
0.00 0.00 0.00 0.00 0.00 0.00 0.01 0.01 0.01 0.01 0.02 0.02 0.02 0.03 0.02 0.03 0.03 0.03 0.03 0.03 0.02 0.02 0.02 0.02 0.01 0.02 0.02 0.03 0.03 0.01 0.01 0.00 0.01 0.01 0.01 0.01 0.01 0.00
0.01 0.00 0.00 0.00 0.01 0.01 0.01 0.01 0.01 0.02 0.02 0.02 0.02 0.02 0.02 0.02 0.03 0.03 0.03 0.03 0.02 0.02 0.02 0.02 0.02 0.02 0.02 0.03 0.02 0.02 0.01 0.01 0.01 0.01 0.01 0.02 0.03 0.02
0.01 0.01 0.01 0.01 0.01 0.01 0.01 0.01 0.01 0.01 0.02 0.02 0.02 0.02 0.02 0.02 0.02 0.03 0.03 0.03 0.03 0.02 0.02 0.02 0.02 0.02 0.02 0.02 0.02 0.02 0.01 0.01 0.01 0.01 0.01 0.01 0.01 0.01
MSLP
1011.89 1012.09 1012.30 1012.52 1012.72 1012.87 1012.97 1012.99 1012.94 1012.83 1012.67 1012.48 1012.30 1012.15 1012.05 1012.01 1012.03 1012.12 1012.25 1012.39 1012.52 1012.61 1012.64 1012.61 1012.52 1012.40 1012.29 1012.24 1012.27 1012.43 1012.73 1013.15 1013.69 1014.27 1014.87 1015.41 1015.86 1016.18
1012.06 1012.19 1012.34 1012.50 1012.65 1012.77 1012.84 1012.86 1012.82 1012.73 1012.59 1012.42 1012.26 1012.11 1012.01 1011.96 1011.97 1012.04 1012.15 1012.26 1012.37 1012.43 1012.44 1012.38 1012.28 1012.15 1012.03 1011.97 1012.02 1012.19 1012.51 1012.96 1013.51 1014.11 1014.71 1015.25 1015.69 1016.00
1012.36 1012.43 1012.52 1012.61 1012.70 1012.77 1012.82 1012.82 1012.78 1012.70 1012.58 1012.43 1012.28 1012.15 1012.05 1011.99 1011.98 1012.02 1012.09 1012.18 1012.24 1012.27 1012.26 1012.18 1012.07 1011.94 1011.83 1011.79 1011.87 1012.07 1012.40 1012.87 1013.43 1014.04 1014.64 1015.16 1015.57 1015.84
1012.71 1012.73 1012.76 1012.79 1012.82 1012.85 1012.86 1012.84 1012.80 1012.72 1012.62 1012.50 1012.37 1012.25 1012.15 1012.08 1012.05 1012.05 1012.08 1012.12 1012.15 1012.14 1012.10 1012.01 1011.89 1011.77 1011.69 1011.67 1011.77 1012.00 1012.36 1012.84 1013.41 1014.00 1014.58 1015.07 1015.44 1015.67
1013.01 1012.99 1012.97 1012.96 1012.94 1012.93 1012.91 1012.88 1012.84 1012.77 1012.69 1012.59 1012.48 1012.37 1012.27 1012.19 1012.14 1012.11 1012.10 1012.10 1012.08 1012.04 1011.97 1011.87 1011.75 1011.65 1011.58 1011.60 1011.72 1011.97 1012.34 1012.82 1013.37 1013.94 1014.47 1014.92 1015.25 1015.45
1013.19 1013.15 1013.11 1013.06 1013.01 1012.97 1012.93 1012.89 1012.85 1012.80 1012.74 1012.66 1012.58 1012.48 1012.39 1012.31 1012.24 1012.18 1012.13 1012.09 1012.04 1011.97 1011.88 1011.78 1011.67 1011.58 1011.53 1011.56 1011.70 1011.95 1012.31 1012.77 1013.28 1013.80 1014.29 1014.69 1014.98 1015.13
1013.23 1013.17 1013.11 1013.04 1012.97 1012.91 1012.86 1012.82 1012.79 1012.76 1012.72 1012.67 1012.60 1012.53 1012.45 1012.37 1012.29 1012.22 1012.15 1012.08 1012.01 1011.93 1011.84 1011.74 1011.64 1011.56 1011.53 1011.58 1011.71 1011.95 1012.28 1012.69 1013.14 1013.60 1014.02 1014.36 1014.61 1014.74
1013.12 1013.05 1012.97 1012.89 1012.81 1012.74 1012.68 1012.65 1012.62 1012.60 1012.58 1012.56 1012.52 1012.47 1012.41 1012.34 1012.26 1012.19 1012.12 1012.05 1011.98 1011.91 1011.83 1011.74 1011.67 1011.61 1011.60 1011.64 1011.76 1011.97 1012.25 1012.59 1012.97 1013.35 1013.70 1013.98 1014.18 1014.30
1012.88 1012.80 1012.71 1012.62 1012.53 1012.45 1012.39 1012.35 1012.33 1012.33 1012.33 1012.32 1012.31 1012.28 1012.24 1012.19 1012.13 1012.07 1012.02 1011.97 1011.92 1011.88 1011.83 1011.78 1011.74 1011.71 1011.71 1011.75 1011.85 1012.02 1012.24 1012.51 1012.81 1013.10 1013.37 1013.60 1013.76 1013.85
1012.56 1012.47 1012.36 1012.25 1012.15 1012.07 1012.00 1011.96 1011.94 1011.94 1011.95 1011.96 1011.97 1011.96 1011.95 1011.92 1011.89 1011.87 1011.84 1011.83 1011.83 1011.82 1011.82 1011.82 1011.82 1011.82 1011.84 1011.89 1011.97 1012.09 1012.26 1012.45 1012.67 1012.89 1013.09 1013.26 1013.38 1013.47
1012.20 1012.09 1011.97 1011.84 1011.73 1011.63 1011.56 1011.51 1011.49 1011.49 1011.51 1011.53 1011.55 1011.56 1011.57 1011.57 1011.57 1011.58 1011.60 1011.63 1011.67 1011.72 1011.77 1011.83 1011.87 1011.92 1011.96 1012.01 1012.08 1012.17 1012.28 1012.42 1012.57 1012.72 1012.87 1012.99 1013.10 1013.18
1011.82 1011.70 1011.57 1011.43 1011.31 1011.20 1011.12 1011.06 1011.04 1011.04 1011.05 1011.08 1011.11 1011.13 1011.16 1011.18 1011.21 1011.25 1011.30 1011.37 1011.46 1011.56 1011.67 1011.77 1011.87 1011.95 1012.02 1012.08 1012.15 1012.22 1012.30 1012.39 1012.49 1012.60 1012.71 1012.81 1012.90 1012.99
1011.45 1011.32 1011.18 1011.05 1010.92 1010.81 1010.73 1010.67 1010.65 1010.64 1010.66 1010.69 1010.72 1010.75 1010.78 1010.81 1010.86 1010.92 1011.00 1011.10 1011.22 1011.36 1011.51 1011.65 1011.78 1011.90 1011.99 1012.07 1012.13 1012.19 1012.26 1012.33 1012.41 1012.50 1012.59 1012.68 1012.77 1012.87
1011.08 1010.96 1010.84 1010.72 1010.60 1010.50 1010.43 1010.38 1010.36 1010.36 1010.37 1010.40 1010.43 1010.46 1010.49 1010.53 1010.57 1010.64 1010.72 1010.84 1010.97 1011.13 1011.29 1011.46 1011.61 1011.74 1011.85 1011.94 1012.01 1012.07 1012.14 1012.20 1012.28 1012.36 1012.46 1012.56 1012.67 1012.77
1010.73 1010.64 1010.55 1010.45 1010.36 1010.28 1010.23 1010.20 1010.19 1010.19 1010.22 1010.24 1010.27 1010.29 1010.32 1010.34 1010.38 1010.43 1010.51 1010.61 1010.74 1010.89 1011.05 1011.21 1011.37 1011.51 1011.62 1011.71 1011.79 1011.85 1011.92 1011.99 1012.08 1012.18 1012.29 1012.41 1012.53 1012.66
1010.40 1010.35 1010.29 1010.24 1010.19 1010.14 1010.12 1010.11 1010.12 1010.14 1010.17 1010.20 1010.23 1010.24 1010.25 1010.26 1010.27 1010.30 1010.35 1010.43 1010.53 1010.66 1010.80 1010.95 1011.08 1011.21 1011.32 1011.40 1011.48 1011.55 1011.62 1011.70 1011.80 1011.91 1012.05 1012.19 1012.34 1012.48
1010.10 1010.10 1010.09 1010.07 1010.06 1010.06 1010.06 1010.08 1010.11 1010.15 1010.19 1010.23 1010.25 1010.25 1010.25 1010.23 1010.22 1010.22 1010.24 1010.28 1010.35 1010.45 1010.56 1010.67 1010.79 1010.89 1010.98 1011.06 1011.12 1011.19 1011.26 1011.35 1011.45 1011.59 1011.74 1011.90 1012.07 1012.23
1009.85 1009.89 1009.92 1009.94 1009.96 1009.99 1010.02 1010.07 1010.12 1010.17 1010.22 1010.25 1010.27 1010.27 1010.25 1010.21 1010.18 1010.15 1010.14 1010.15 1010.19 1010.25 1010.32 1010.41 1010.50 1010.58 1010.65 1010.71 1010.77 1010.82 1010.89 1010.97 1011.08 1011.22 1011.38 1011.56 1011.74 1011.92
1009.65 1009.72 1009.78 1009.82 1009.87 1009.91 1009.96 1010.01 1010.07 1010.13 1010.18 1010.21 1010.23 1010.22 1010.19 1010.14 1010.09 1010.04 1010.01 1009.99 1010.01 1010.04 1010.10 1010.16 1010.23 1010.30 1010.35 1010.39 1010.43 1010.47 1010.53 1010.60 1010.71 1010.84 1011.00 1011.18 1011.37 1011.55
1009.50 1009.58 1009.65 1009.70 1009.74 1009.79 1009.83 1009.89 1009.95 1010.00 1010.05 1010.08 1010.09 1010.07 1010.03 1009.98 1009.91 1009.85 1009.81 1009.78 1009.78 1009.81 1009.85 1009.91 1009.97 1010.02 1010.07 1010.11 1010.13 1010.16 1010.20 1010.26 1010.35 1010.47 1010.62 1010.79 1010.98 1011.16
1009.38 1009.47 1009.52 1009.56 1009.59 1009.62 1009.65 1009.69 1009.74 1009.78 1009.82 1009.84 1009.84 1009.82 1009.77 1009.71 1009.64 1009.58 1009.53 1009.50 1009.50 1009.53 1009.57 1009.63 1009.69 1009.75 1009.79 1009.83 1009.85 1009.87 1009.90 1009.94 1010.01 1010.11 1010.25 1010.40 1010.58 1010.76
1009.29 1009.35 1009.39 1009.40 1009.40 1009.41 1009.42 1009.44 1009.46 1009.49 1009.51 1009.52 1009.51 1009.48 1009.43 1009.36 1009.29 1009.23 1009.18 1009.15 1009.15 1009.19 1009.24 1009.30 1009.37 1009.43 1009.49 1009.52 1009.54 1009.56 1009.58 1009.61 1009.67 1009.75 1009.87 1010.01 1010.17 1010.34
1009.19 1009.23 1009.23 1009.21 1009.19 1009.16 1009.15 1009.14 1009.15 1009.15 1009.16 1009.15 1009.13 1009.08 1009.03 1008.95 1008.88 1008.81 1008.76 1008.73 1008.74 1008.77 1008.82 1008.89 1008.97 1009.04 1009.10 1009.14 1009.17 1009.18 1009.20 1009.23 1009.27 1009.35 1009.45 1009.58 1009.74 1009.91
Thickness
5535 5534 5534 5534 5533 5533 5532 5531 5528 5526 5528 5527 5526 5526 5525 5524 5523 5522 5521 5519 5518 5517 5517 5516 5515 5514 5513 5513 5512 5510 5509 5508 5507 5507 5506 5505 5504 5504
5524 5524 5524 5523 5522 5522 5522 5521 5520 5518 5516 5517 5515 5514 5513 5512 5511 5510 5509 5508 5506 5506 5505 5504 5503 5503 5502 5501 5500 5499 5498 5496 5495 5495 5494 5493 5492 5491
5513 5513 5513 5512 5511 5510 5510 5509 5508 5507 5505 5504 5502 5501 5500 5499 5498 5498 5497 5496 5494 5494 5493 5492 5491 5491 5490 5490 5489 5487 5486 5484 5483 5482 5481 5481 5480 5479
5502 5502 5502 5501 5500 5499 5498 5497 5496 5495 5493 5490 5489 5488 5487 5486 5486 5485 5484 5483 5482 5482 5482 5480 5480 5479 5478 5477 5476 5475 5473 5471 5470 5469 5469 5469 5467 5466
5492 5492 5491 5490 5489 5488 5487 5485 5484 5483 5481 5478 5477 5475 5474 5473 5472 5472 5471 5470 5469 5469 5469 5468 5467 5466 5465 5464 5463 5462 5460 5460 5459 5457 5456 5455 5454 5453
5481 5481 5480 5479 5479 5477 5475 5474 5472 5470 5468 5466 5464 5462 5461 5460 5459 5458 5457 5457 5456 5456 5455 5454 5454 5453 5452 5451 5450 5449 5448 5446 5445 5444 5444 5443 5442 5441
5470 5470 5470 5469 5469 5467 5465 5464 5461 5459 5457 5454 5453 5451 5449 5447 5446 5446 5444 5443 5443 5443 5441 5440 5440 5440 5439 5438 5437 5437 5436 5434 5433 5432 5431 5431 5430 5429
5460 5459 5459 5458 5458 5457 5455 5454 5452 5449 5447 5444 5442 5440 5439 5437 5436 5434 5431 5429 5429 5430 5428 5427 5427 5427 5426 5425 5425 5425 5424 5422 5421 5420 5419 5418 5417 5417
5450 5449 5448 5447 5446 5445 5444 5443 5441 5439 5437 5435 5432 5430 5428 5427 5425 5423 5420 5417 5416 5417 5415 5415 5414 5414 5414 5413 5413 5412 5411 5410 5408 5407 5406 5406 5405 5405
5439 5439 5437 5436 5435 5434 5432 5431 5429 5427 5426 5424 5422 5420 5417 5415 5414 5412 5409 5406 5404 5403 5403 5402 5402 5401 5402 5401 5400 5399 5398 5397 5395 5394 5393 5393 5392 5392
5428 5428 5427 5425 5425 5424 5421 5419 5417 5415 5414 5413 5410 5408 5405 5403 5402 5399 5396 5394 5392 5392 5391 5390 5390 5389 5390 5389 5388 5387 5385 5383 5382 5381 5380 5380 5379 5379
5418 5417 5417 5416 5414 5412 5410 5407 5405 5404 5402 5400 5398 5395 5392 5390 5389 5388 5386 5383 5381 5379 5380 5378 5377 5375 5376 5377 5376 5374 5372 5370 5369 5368 5367 5367 5367 5366
5408 5407 5406 5406 5404 5402 5400 5398 5396 5394 5391 5389 5386 5383 5381 5379 5377 5375 5374 5372 5370 5368 5368 5366 5364 5362 5361 5362 5363 5361 5359 5358 5356 5355 5355 5355 5354 5354
5398 5397 5396 5395 5395 5393 5391 5389 5387 5384 5381 5378 5376 5373 5370 5368 5366 5364 5362 5361 5360 5358 5357 5355 5354 5351 5349 5349 5349 5349 5348 5346 5345 5344 5344 5344 5344 5344
5388 5388 5387 5386 5384 5382 5381 5379 5377 5374 5372 5369 5366 5364 5361 5359 5356 5354 5352 5351 5349 5348 5347 5345 5344 5342 5339 5338 5337 5336 5335 5335 5334 5334 5334 5334 5334 5335
5378 5378 5377 5375 5373 5371 5370 5369 5367 5365 5362 5360 5358 5355 5352 5349 5346 5344 5342 5340 5338 5338 5336 5335 5334 5332 5329 5328 5326 5325 5323 5323 5324 5324 5325 5325 5326 5326
5368 5367 5365 5364 5362 5361 5360 5358 5357 5355 5353 5351 5348 5346 5343 5341 5338 5335 5333 5331 5329 5329 5327 5325 5323 5322 5320 5318 5316 5316 5314 5314 5315 5315 5315 5316 5318 5318
5359 5358 5356 5355 5354 5352 5350 5348 5347 5345 5343 5342 5340 5337 5335 5332 5330 5327 5325 5322 5321 5320 5318 5316 5313 5311 5309 5309 5309 5307 5306 5305 5306 5306 5306 5307 5310 5311
5350 5349 5348 5347 5345 5343 5341 5340 5338 5336 5334 5332 5330 5328 5325 5323 5321 5318 5316 5314 5312 5311 5309 5307 5305 5302 5300 5299 5299 5299 5298 5297 5297 5297 5297 5298 5300 5303
5341 5340 5339 5338 5336 5334 5333 5331 5329 5327 5325 5323 5321 5319 5316 5314 5312 5310 5308 5306 5303 5302 5300 5298 5296 5293 5291 5291 5290 5291 5290 5289 5288 5288 5289 5290 5292 5294
5332 5332 5331 5329 5328 5327 5325 5323 5321 5319 5317 5314 5312 5310 5308 5305 5303 5301 5299 5298 5295 5293 5292 5290 5288 5286 5284 5282 5281 5282 5282 5281 5281 5281 5281 5282 5283 5286
5325 5324 5323 5322 5320 5319 5317 5316 5314 5311 5309 5306 5304 5302 5299 5297 5295 5293 5291 5289 5287 5286 5284 5282 5279 5277 5276 5274 5274 5274 5274 5274 5274 5274 5274 5274 5274 5276
5318 5317 5316 5314 5313 5312 5310 5308 5306 5304 5302 5299 5297 5294 5292 5289 5287 5285 5284 5282 5280 5279 5277 5274 5272 5270 5269 5268 5267 5267 5266 5266 5266 5267 5268 5268 5269 5271